Location: Long Geng
(2.6167°N, 114.1333°E)
Time: 20:16:24
(UTC+00:00)

USA 215 - Pass Details

Date: 14 May 2021
Orbit: 1100 x 1107 km, 123.0° (Epoch: 14 June)

Event Time Altitude Azimuth Distance (km) Brightness Sun altitude
Rises 20:35:17 0° 163° (SSE) 3,917 6.1 -23.7°
Reaches altitude 10° 20:38:02 10° 172° (S) 2,957 5.4 -23.1°
Enters shadow 20:42:22 30° 210° (SSW) 1,853 4.0 -22.0°
